Location: Berkeley
(37.8716°N, 122.2727°W)
Time: 03:30:35
(UTC-07:00)

OTV 5 (USA 277) - Visible Passes

Search period start: 21 June 2018 00:00
Search period end: 01 July 2018 00:00
Orbit: 313 x 320 km, 54.5° (Epoch: 19 June)

Date Brightness Start Highest point End Pass type
(mag) Time Alt. Az. Time Alt. Az. Time Alt. Az.
21 Jun ? 02:41:54 10° NNW 02:41:54 10° NNW 02:41:54 10° NNW visible
27 Jun ? 23:40:25 10° N 23:41:05 13° N 23:41:05 13° N visible
28 Jun ? 23:54:12 10° NNW 23:54:36 13° NNW 23:54:36 13° NNW visible
29 Jun ? 22:35:47 10° NNE 22:36:35 11° NNE 22:37:19 10° NE visible
30 Jun ? 22:49:00 10° NNW 22:50:55 22° NNE 22:50:55 22° NNE visible
